sat.trackr.live / text

‹ back to catalog

STARLINK-30230

NORAD 57503 · 2023-113J

PAYLOAD ACTIVE UNKNOWN

§ Identity

Operator
Country
US
Launch date
2023-08-07
Launch site
AFETR
Launch vehicle
Mass (kg)
RCS (m²)

Purposes: comms

External: N2YO · Heavens-Above · Gunter

§ Orbital elements

Epoch: 2026-09-19T14:42:40.641696Z

Period
94.27 min
Inclination
43.0057°
Eccentricity
0.0001985
Mean motion
15.27577469 rev/d
Perigee alt
481.7 km
Apogee alt
484.4 km
Semi-major
6,861.2 km
B*
2.7163e-5
RAAN
0.8423°
Arg perigee
280.5177°
Mean anomaly
79.5451°
Rev number
17,322

§ Raw data

STARLINK-302301 57503U 23113J   26262.61297039  .00000485  00000+0  27163-4 0  99942 57503  43.0057   0.8423 0001985 280.5177  79.5451 15.27577469173220

JSON: /api/v1/satellites/57503 · /tle

For live sub-satellite position, see the globe view (requires WebGL).

§ Visibility from observer

Set your observer location to see the next 7 days of passes ≥ 10°. The values pass through the URL so the page stays shareable.

No JS? Fill the form by hand. The geolocation button needs JavaScript.